Location: Noordwijk
(52.2400°N, 4.4500°E)
Time: 19:46:20
(UTC+00:00)

FO-29 - Pass Details

Date: 07 December 2022
Orbit: 799 x 1322 km, 98.5° (Epoch: 31 January)

Event Time Altitude Azimuth Distance (km) Brightness Sun altitude
Rises 18:13:08 0° 207° (SSW) 4,311 13.3 -23.7°
Reaches altitude 10° 18:16:32 10° 220° (SW) 3,325 12.9 -24.2°
Maximum altitude 18:22:38 25° 272° (W) 2,320 12.2 -25.1°
Drops below altitude 10° 18:28:29 10° 325° (NW) 3,150 12.5 -26.0°
Sets 18:31:38 0° 339° (NNW) 4,040 12.9 -26.5°
